Tracking 25734 objects as of 28-May-2022
HD Live streaming from Space Station
objects crossing your sky now

ORBCOMM FM 16 DEB

Track ORBCOMM FM 16 DEB now!
10-day predictions


NORAD ID: 44026
Int'l Code: 1998-046V
Perigee: 701.0 km
Apogee: 913.0 km
Inclination: 45.3 °
Period: 100.9 minutes
Semi major axis: 7178 km
RCS: Unknown
Launch date: August 2, 1998
Source: ORBCOMM (ORB)
Launch site: Pegasus launched from Eastern Range Air Space (ERAS)

Note: This is SATELLITE DEBRIS
aabbcc
Your satellite tracking list
Your tracking list is empty




NASA's NSSDC Master Catalog

Two Line Element Set (TLE):
1 44026U 98046V   22148.37913076  .00026677  00000-0  95851-2 0  9994
2 44026  45.2681  34.9246 0147699 261.3215  97.0878 14.27565192173875
Source of the keplerian elements: AFSPC